Location: Rounton
(54.4000°N, 1.3500°W)
Time: 21:05:41
(UTC+00:00)

A-11 Canister half - Pass Details

Date: 06 December 2021
Orbit: 1516 x 1684 km, 47.2° (Epoch: 19 January)

Event Time Altitude Azimuth Distance (km) Brightness Sun altitude
Rises 10:34:53 0° 272° (W) 4,836 11.4 11.1°
Reaches altitude 10° 10:38:03 10° 267° (W) 3,870 11.0 11.2°
Maximum altitude 10:47:33 53° 195° (SSW) 1,981 10.4 11.6°
Drops below altitude 10° 10:57:14 10° 123° (ESE) 3,944 12.0 12.0°
Sets 11:00:30 0° 119° (ESE) 4,933 12.3 12.1°
